CSG-1

Last updated on Thu Jul 03 2025 00:02:30 GMT+0000 (Coordinated Universal Time)

1 44873U 19092A 25183.54939925 .00000370 00000+0 52993-4 0 9993 2 44873 97.8880 7.2196 0001529 87.5911 272.5477 14.82152274299685
UTC large
Height (km)
Speed (km/s)
/
Latitude / Longitude
Inclination (degrees)
Orbital Period (minutes)
Azimuth
Elevation
Range (km)
Doppler Factor

Next 0 passes for location: London (51.5072 / 0.1276)

Sorry there are no passes over London.